Location: La Oliva
(42.2466°N, 2.9955°E)
Time: 06:57:03
(UTC+00:00)

USA 229 - Pass Details

Date: 22 April 2021
Orbit: 958 x 1254 km, 63.4° (Epoch: 23 April)

Event Time Altitude Azimuth Distance (km) Brightness Sun altitude
Rises 22:16:58 0° 324° (NW) 3,979 7.8 -31.5°
Reaches altitude 10° 22:19:36 10° 325° (NW) 3,057 6.9 -31.7°
Maximum altitude 22:27:00 88° 52° (NE) 1,212 3.8 -32.3°
Enters shadow 22:27:07 87° 108° (ESE) 1,213 3.8 -32.3°
